Location: Aalen
(48.8330°N, 10.1000°E)
Time: 20:59:36
(UTC+02:00)

CAS-6 - Visible Passes

Search period start: 28 March 2023 00:00
Search period end: 07 April 2023 00:00
Orbit: 612 x 632 km, 97.9° (Epoch: 28 March)

Date Brightness Start Highest point End Pass type
(mag) Time Alt. Az. Time Alt. Az. Time Alt. Az.
28 Mar ? 22:24:30 19° NE 22:24:30 19° NE 22:26:29 10° NNE visible
29 Mar ? 00:01:42 20° NNW 00:01:42 20° NNW 00:03:14 10° NNW visible
29 Mar ? 22:42:28 24° NNE 22:42:28 24° NNE 22:44:42 10° N visible
30 Mar ? 00:19:40 17° NW 00:19:40 17° NW 00:20:54 10° NNW visible
30 Mar ? 23:00:25 28° NNE 23:00:25 28° NNE 23:02:47 10° N visible
31 Mar ? 00:37:38 13° NW 00:37:38 13° NW 00:38:22 10° NW visible
31 Mar ? 23:18:23 31° N 23:18:23 31° N 23:20:46 10° N visible
01 Apr ? 21:59:08 14° NE 21:59:08 14° NE 22:00:58 10° NNE visible
01 Apr ? 23:36:20 31° NNW 23:36:20 31° NNW 23:38:40 10° NNW visible
02 Apr ? 22:17:05 19° NE 22:17:05 19° NE 22:19:29 10° NNE visible
02 Apr ? 23:54:17 28° NW 23:54:17 28° NW 23:56:27 10° NNW visible
03 Apr ? 22:35:01 25° NE 22:35:01 25° NE 22:37:45 10° N visible
04 Apr ? 00:12:13 23° NW 00:12:13 23° NW 00:14:08 10° NNW visible
04 Apr ? 22:52:58 32° NNE 22:52:58 32° NNE 22:55:51 10° N visible
05 Apr ? 00:30:09 18° NW 00:30:09 18° NW 00:31:40 10° NW visible
05 Apr ? 23:10:54 39° NNE 23:10:54 39° NNE 23:13:51 10° N visible
06 Apr ? 00:48:06 13° WNW 00:48:06 13° WNW 00:48:57 10° NW visible
06 Apr ? 21:51:38 12° ENE 21:51:55 12° NE 21:53:40 10° NNE visible
06 Apr ? 23:28:50 41° N 23:28:50 41° N 23:31:45 10° NNW visible
